Content
SEND FEEDBACK

Daily
Averages
Monthly
Summary
Mexico

COZUMEL, QUINTANA ROO


Home > North America > Mexico > Quintana Roo
Elevation: 15 feet     Latitude: 20 31N     Longitude: 086 56W

WEATHER
 
SELECT A DAY
Number of Records: 128,627;   Date Range: 1/1/95 - 12/20/14
 
SHARE

PRINT THIS DATA

[ ← Previous Day ]
WEATHER ALMANAC - OCTOBER 1, 2013
[ Next Day → ]
[ °C ]   °F
Weather ElementAverageHighLow
Temperature76 °F84.2 °F (12:40 pm)66.2 °F (3:42 am)
Dewpoint70.2 °F73.4 °F (10:41 pm)66.2 °F (3:42 am)
Humidity83.7 %100 % (1:40 am)66 % (11:40 am)
Barometer29.91 in29.97 in (9:45 am)29.86 in (7:01 pm)
Wind Speed4.7 mph11.5 mph (3:50 pm)
Weather ElementAverage
Visibility7.3 mi
Wind DirectionNNE (36.5 °)

Weather ElementTotal
Precipitation---
Cooling Degree Days10.2 (Base 65)
Growing Degree Days25.2 (Base 50)
Averaged from 23 records on October 1, 2013
WEATHER CONDITIONS BREAKOUT
WIND DIRECTION BREAKOUT
WEATHER BY HOUR - OCTOBER 1, 2013
[ °C ]   °F
Local TimeTemperatureDewpointHumidityBarometerVisibilityWind DirectionWind SpeedGust SpeedPrecipitationEventsConditions
1:40 AM68.0 °F68.0 °F100 %29.92 in7.0 miCalmClear
2:43 AM68.0 °F68.0 °F100 %29.89 in7.0 miCalmClear
3:42 AM66.2 °F66.2 °F100 %29.92 in7.0 miCalmClear
4:47 AM66.2 °F66.2 °F100 %29.89 in7.0 miCalmClear
5:41 AM66.2 °F66.2 °F100 %29.90 in7.0 miCalmClear
6:42 AM66.2 °F66.2 °F100 %29.89 in8.0 miEast (90°)3.5 mphClear
7:48 AM69.8 °F69.8 °F100 %29.93 in7.0 miCalmClear
8:44 AM78.8 °F71.6 °F78 %29.94 in7.0 miCalmClear
9:45 AM80.6 °F71.6 °F74 %29.97 in7.0 miNNE (30°)4.6 mphPartly Cloudy
10:44 AM82.4 °F71.6 °F70 %29.94 in7.0 miNE (50°)8.1 mphScattered Clouds
11:40 AM82.4 °F69.8 °F66 %29.94 in8.0 miNNE (30°)8.1 mphScattered Clouds
12:40 PM84.2 °F71.6 °F66 %29.89 in8.0 miENE (60°)8.1 mphMostly Cloudy
1:41 PM84.2 °F71.6 °F66 %29.92 in8.0 miENE (60°)9.2 mphMostly Cloudy
2:41 PM84.2 °F71.6 °F66 %29.89 in8.0 miENE (60°)9.2 mphScattered Clouds
3:50 PM82.4 °F71.6 °F70 %29.91 in8.0 miNE (50°)11.5 mphScattered Clouds
4:49 PM82.4 °F69.8 °F66 %29.87 in8.0 miNE (50°)11.5 mphPartly Cloudy
5:43 PM80.6 °F71.6 °F74 %29.87 in8.0 miENE (70°)6.9 mphClear
7:01 PM77.0 °F71.6 °F83 %29.86 in7.0 miNE (50°)4.6 mphPartly Cloudy
7:41 PM75.2 °F71.6 °F89 %29.89 in7.0 miCalmPartly Cloudy
8:46 PM75.2 °F71.6 °F89 %29.91 in7.0 miENE (60°)4.6 mphPartly Cloudy
9:40 PM75.2 °F71.6 °F89 %29.95 in7.0 miENE (60°)3.5 mphPartly Cloudy
10:41 PM77.0 °F73.4 °F89 %29.93 in7.0 miNE (50°)9.2 mphPartly Cloudy
11:42 PM75.2 °F71.6 °F89 %29.93 in7.0 miENE (70°)4.6 mphPartly Cloudy
Hourly data recorded from MMCZ, located miles away from Cozumel, Quintana Roo







STORIES FROM OUR PARTNERS